| time (UTC) | temp F | wind direction | speed MPH | gust MPH | rain 1hr in | rain 24hr in | rain mn in | humidity % | barometer mb |
| 20260509215532 | 68 | 316 | 0.0 | 0.0 | 0.00 | 0.00 | 0.00 | 80 | 1031.2 |
| 20260509213632 | 68 | 244 | 0.0 | 0.0 | 0.00 | 0.00 | 0.00 | 81 | 1031.3 |
| 20260509212631 | 68 | 277 | 0.0 | 0.0 | 0.00 | 0.00 | 0.00 | 81 | 1031.4 |
| 20260509211631 | 68 | 309 | 0.0 | 0.0 | 0.00 | 0.00 | 0.00 | 82 | 1031.7 |
| 20260509211531 | 68 | 309 | 0.0 | 0.0 | 0.00 | 0.00 | 0.00 | 81 | 1031.7 |
| 20260509210530 | 67 | 314 | 0.0 | 0.0 | 0.00 | 0.00 | 0.00 | 82 | 1031.6 |
| 20260509205531 | 68 | 311 | 0.0 | 0.0 | 0.00 | 0.00 | 0.00 | 81 | 1031.8 |
| 20260509204629 | 68 | 291 | 0.0 | 0.0 | 0.00 | 0.00 | 0.00 | 80 | 1031.9 |
| 20260509203630 | 68 | 308 | 0.0 | 0.0 | 0.00 | 0.00 | 0.00 | 81 | 1032.0 |
| 20260509202630 | 68 | 287 | 0.0 | 0.0 | 0.00 | 0.00 | 0.00 | 82 | 1032.0 |
| 20260509201630 | 67 | 308 | 0.0 | 0.0 | 0.00 | 0.00 | 0.00 | 82 | 1032.1 |
| 20260509200729 | 67 | 204 | 0.0 | 0.0 | 0.00 | 0.00 | 0.00 | 80 | 1032.2 |
| 20260509195732 | 67 | 300 | 0.0 | 0.0 | 0.00 | 0.00 | 0.00 | 82 | 1032.1 |
| 20260509194731 | 67 | 317 | 0.0 | 0.0 | 0.00 | 0.00 | 0.00 | 83 | 1032.1 |
| 20260509193732 | 67 | 308 | 0.0 | 0.0 | 0.00 | 0.00 | 0.00 | 83 | 1032.1 |
| 20260509192830 | 67 | 290 | 0.0 | 0.0 | 0.00 | 0.00 | 0.00 | 83 | 1032.2 |
| 20260509191830 | 67 | 193 | 0.0 | 0.0 | 0.00 | 0.00 | 0.00 | 83 | 1032.1 |
| 20260509185832 | 67 | 247 | 0.0 | 0.0 | 0.00 | 0.00 | 0.00 | 83 | 1032.1 |
| 20260509184832 | 66 | 255 | 0.0 | 0.0 | 0.00 | 0.00 | 0.00 | 83 | 1032.3 |
| 20260509183829 | 66 | 311 | 0.0 | 0.0 | 0.00 | 0.00 | 0.00 | 82 | 1032.2 |
| 20260509182831 | 65 | 330 | 0.0 | 0.0 | 0.00 | 0.00 | 0.00 | 82 | 1032.3 |
| 20260509180832 | 65 | 326 | 0.0 | 0.0 | 0.00 | 0.00 | 0.00 | 82 | 1032.4 |
| 20260509175829 | 64 | 328 | 0.0 | 0.0 | 0.00 | 0.00 | 0.00 | 84 | 1032.5 |
| 20260509173930 | 64 | 319 | 0.0 | 0.0 | 0.00 | 0.00 | 0.00 | 85 | 1032.6 |
| 20260509171029 | 63 | 324 | 0.0 | 0.0 | 0.00 | 0.00 | 0.00 | 88 | 1032.6 |
| 20260509170032 | 63 | 332 | 0.0 | 0.0 | 0.00 | 0.00 | 0.00 | 89 | 1032.6 |
| 20260509164029 | 62 | 317 | 0.0 | 0.0 | 0.00 | 0.00 | 0.00 | 89 | 1032.6 |
| 20260509162030 | 62 | 337 | 0.0 | 0.0 | 0.00 | 0.00 | 0.00 | 90 | 1032.7 |
| 20260509161032 | 62 | 316 | 0.0 | 0.0 | 0.00 | 0.00 | 0.00 | 89 | 1032.8 |
| 20260509160030 | 61 | 315 | 0.0 | 0.0 | 0.00 | 0.00 | 0.00 | 90 | 1032.8 |
| 20260509154129 | 61 | 336 | 0.0 | 0.0 | 0.00 | 0.00 | 0.00 | 91 | 1032.6 |
| 20260509153131 | 61 | 319 | 0.0 | 0.0 | 0.00 | 0.00 | 0.00 | 91 | 1032.6 |
| 20260509152131 | 61 | 333 | 0.0 | 0.0 | 0.00 | 0.00 | 0.00 | 91 | 1032.8 |
| 20260509151130 | 61 | 334 | 0.0 | 0.0 | 0.00 | 0.00 | 0.00 | 91 | 1032.7 |
| 20260509150130 | 61 | 337 | 0.0 | 0.0 | 0.00 | 0.00 | 0.00 | 91 | 1032.7 |
| 20260509145132 | 61 | 337 | 0.0 | 0.0 | 0.00 | 0.00 | 0.00 | 90 | 1032.7 |
| 20260509144130 | 60 | 337 | 0.0 | 0.0 | 0.00 | 0.00 | 0.00 | 91 | 1032.7 |
| 20260509141233 | 60 | 337 | 0.0 | 0.0 | 0.00 | 0.00 | 0.00 | 91 | 1032.5 |
| 20260509140230 | 60 | 250 | 0.0 | 0.0 | 0.00 | 0.00 | 0.00 | 92 | 1032.4 |
| 20260509135231 | 60 | 337 | 0.0 | 0.0 | 0.00 | 0.00 | 0.00 | 91 | 1032.5 |
| 20260509134330 | 60 | 337 | 0.0 | 0.0 | 0.00 | 0.00 | 0.00 | 91 | 1032.6 |
| 20260509133330 | 60 | 331 | 0.0 | 0.0 | 0.00 | 0.00 | 0.00 | 91 | 1032.4 |
| 20260509132331 | 60 | 333 | 0.0 | 0.0 | 0.00 | 0.00 | 0.00 | 92 | 1032.3 |
| 20260509131331 | 60 | 333 | 0.0 | 0.0 | 0.00 | 0.00 | 0.00 | 92 | 1032.4 |
| 20260509130430 | 60 | 335 | 0.0 | 0.0 | 0.00 | 0.00 | 0.00 | 92 | 1032.2 |
| 20260509125430 | 60 | 334 | 0.0 | 0.0 | 0.00 | 0.00 | 0.00 | 91 | 1032.3 |
| 20260509124430 | 60 | 336 | 0.0 | 0.0 | 0.00 | 0.00 | 0.00 | 92 | 1032.2 |
| 20260509123529 | 60 | 337 | 0.0 | 0.0 | 0.00 | 0.00 | 0.00 | 92 | 1032.1 |
| 20260509122530 | 61 | 334 | 0.0 | 0.0 | 0.00 | 0.00 | 0.00 | 92 | 1032.0 |
| 20260509121532 | 61 | 337 | 0.0 | 0.0 | 0.00 | 0.00 | 0.00 | 92 | 1032.0 |
| 20260509120530 | 61 | 335 | 0.0 | 0.0 | 0.00 | 0.00 | 0.00 | 92 | 1032.0 |
| 20260509115531 | 61 | 335 | 0.0 | 0.0 | 0.00 | 0.00 | 0.00 | 91 | 1032.1 |
| 20260509114531 | 61 | 337 | 0.0 | 0.0 | 0.00 | 0.00 | 0.00 | 91 | 1032.1 |
| 20260509112530 | 61 | 182 | 0.0 | 0.0 | 0.00 | 0.00 | 0.00 | 91 | 1032.1 |
| 20260509111532 | 61 | 180 | 0.0 | 0.0 | 0.00 | 0.00 | 0.00 | 91 | 1032.2 |
| 20260509110531 | 61 | 180 | 0.0 | 0.0 | 0.00 | 0.00 | 0.00 | 91 | 1032.2 |
| 20260509105532 | 61 | 337 | 0.0 | 0.0 | 0.00 | 0.00 | 0.00 | 91 | 1032.2 |
| 20260509104531 | 61 | 180 | 0.0 | 0.0 | 0.00 | 0.00 | 0.00 | 91 | 1032.0 |
| 20260509103530 | 61 | 180 | 0.0 | 0.0 | 0.00 | 0.00 | 0.00 | 91 | 1032.1 |
| 20260509102531 | 61 | 180 | 0.0 | 0.0 | 0.00 | 0.00 | 0.00 | 91 | 1032.5 |
| 20260509101630 | 61 | 337 | 0.0 | 0.0 | 0.00 | 0.00 | 0.00 | 91 | 1032.4 |
| 20260509100632 | 61 | 200 | 0.0 | 0.0 | 0.00 | 0.00 | 0.00 | 91 | 1032.3 |
| 20260509093830 | 61 | 323 | 0.0 | 0.0 | 0.00 | 0.00 | 0.00 | 90 | 1032.5 |
| 20260509092929 | 61 | 337 | 0.0 | 0.0 | 0.00 | 0.00 | 0.00 | 90 | 1032.5 |
| 20260509091929 | 61 | 180 | 0.0 | 0.0 | 0.00 | 0.00 | 0.00 | 91 | 1032.4 |
| 20260509090931 | 61 | 337 | 0.0 | 0.0 | 0.00 | 0.00 | 0.00 | 91 | 1032.5 |
| 20260509085931 | 61 | 336 | 0.0 | 0.0 | 0.00 | 0.00 | 0.00 | 90 | 1032.7 |
| 20260509084930 | 61 | 337 | 0.0 | 0.0 | 0.00 | 0.00 | 0.00 | 90 | 1032.8 |
| 20260509083929 | 61 | 337 | 0.0 | 0.0 | 0.00 | 0.00 | 0.00 | 91 | 1032.8 |
| 20260509082931 | 61 | 337 | 0.0 | 0.0 | 0.00 | 0.00 | 0.00 | 90 | 1032.9 |
| 20260509080030 | 61 | 337 | 0.0 | 0.0 | 0.00 | 0.00 | 0.00 | 91 | 1033.1 |
| 20260509075031 | 61 | 337 | 0.0 | 0.0 | 0.00 | 0.00 | 0.00 | 90 | 1033.1 |
| 20260509072129 | 61 | 336 | 0.0 | 0.0 | 0.00 | 0.00 | 0.00 | 91 | 1033.1 |
| 20260509071130 | 61 | 337 | 0.0 | 0.0 | 0.00 | 0.00 | 0.00 | 91 | 1033.3 |
| 20260509070229 | 61 | 325 | 0.0 | 0.0 | 0.00 | 0.00 | 0.00 | 91 | 1033.5 |
| 20260509065321 | 61 | 337 | 0.0 | 0.0 | 0.00 | 0.00 | 0.00 | 90 | 1033.5 |
| 20260509063420 | 61 | 315 | 0.0 | 0.0 | 0.00 | 0.00 | 0.00 | 89 | 1033.6 |
| 20260509062420 | 61 | 336 | 0.0 | 0.0 | 0.00 | 0.00 | 0.00 | 90 | 1033.4 |
| 20260509060419 | 62 | 336 | 0.0 | 0.0 | 0.00 | 0.00 | 0.00 | 90 | 1033.6 |
| 20260509055518 | 62 | 315 | 0.0 | 0.0 | 0.00 | 0.00 | 0.00 | 90 | 1033.5 |
| 20260509054519 | 62 | 336 | 0.0 | 0.0 | 0.00 | 0.00 | 0.00 | 90 | 1033.5 |
| 20260509052519 | 62 | 335 | 0.0 | 0.0 | 0.00 | 0.00 | 0.00 | 90 | 1033.7 |
| 20260509051518 | 62 | 316 | 0.0 | 0.0 | 0.00 | 0.00 | 0.00 | 89 | 1033.6 |
| 20260509045618 | 62 | 315 | 0.0 | 0.0 | 0.00 | 0.00 | 0.00 | 89 | 1033.8 |
| 20260509044619 | 62 | 315 | 0.0 | 0.0 | 0.00 | 0.00 | 0.00 | 89 | 1033.6 |
| 20260509043619 | 62 | 358 | 0.0 | 0.0 | 0.00 | 0.00 | 0.00 | 89 | 1033.5 |
| 20260509042619 | 62 | 336 | 0.0 | 0.0 | 0.00 | 0.00 | 0.00 | 89 | 1033.6 |
| 20260509034717 | 62 | 315 | 0.0 | 0.0 | 0.00 | 0.00 | 0.00 | 88 | 1033.4 |
| 20260509033722 | 62 | 325 | 0.0 | 0.0 | 0.00 | 0.00 | 0.00 | 89 | 1033.2 |
| 20260509032819 | 62 | 337 | 0.0 | 0.0 | 0.00 | 0.00 | 0.00 | 88 | 1033.1 |
| 20260509031818 | 62 | 315 | 0.0 | 0.0 | 0.00 | 0.00 | 0.00 | 89 | 1033.0 |
| 20260509025820 | 62 | 336 | 0.0 | 0.0 | 0.00 | 0.00 | 0.00 | 89 | 1033.1 |
| 20260509024819 | 62 | 337 | 0.0 | 0.0 | 0.00 | 0.00 | 0.00 | 88 | 1032.9 |
| 20260509022819 | 63 | 326 | 0.0 | 0.0 | 0.00 | 0.00 | 0.00 | 88 | 1032.8 |
| 20260509021821 | 63 | 318 | 0.0 | 0.0 | 0.00 | 0.00 | 0.00 | 87 | 1032.7 |
| 20260509015821 | 63 | 315 | 0.0 | 0.0 | 0.00 | 0.00 | 0.00 | 87 | 1032.6 |
| 20260509014819 | 63 | 326 | 0.0 | 0.0 | 0.00 | 0.00 | 0.00 | 87 | 1032.4 |
| 20260509013819 | 64 | 315 | 0.0 | 0.0 | 0.00 | 0.00 | 0.00 | 87 | 1032.5 |
| 20260509012819 | 64 | 320 | 0.0 | 0.0 | 0.00 | 0.00 | 0.00 | 85 | 1032.6 |
| 20260509011819 | 65 | 340 | 0.0 | 0.0 | 0.00 | 0.00 | 0.00 | 87 | 1032.5 |
| 20260509010819 | 65 | 324 | 0.0 | 0.0 | 0.00 | 0.00 | 0.00 | 86 | 1032.3 |
| 20260509005819 | 65 | 321 | 0.0 | 0.0 | 0.00 | 0.00 | 0.00 | 84 | 1032.4 |
| 20260509003919 | 66 | 321 | 0.0 | 0.0 | 0.00 | 0.00 | 0.00 | 86 | 1032.3 |
| 20260509003018 | 66 | 320 | 0.0 | 0.0 | 0.00 | 0.00 | 0.00 | 84 | 1032.3 |
| 20260509001119 | 68 | 335 | 0.0 | 0.0 | 0.00 | 0.00 | 0.00 | 82 | 1032.2 |
| 20260509000119 | 68 | 316 | 0.0 | 0.0 | 0.00 | 0.00 | 0.00 | 82 | 1032.4 |
| 20260508235120 | 69 | 321 | 0.0 | 0.0 | 0.00 | 0.00 | 0.00 | 81 | 1032.4 |
| 20260508234218 | 69 | 324 | 0.0 | 0.0 | 0.00 | 0.00 | 0.00 | 82 | 1032.5 |
| 20260508233219 | 69 | 322 | 0.0 | 0.0 | 0.00 | 0.00 | 0.00 | 82 | 1032.4 |
| 20260508232221 | 68 | 324 | 0.0 | 0.0 | 0.00 | 0.00 | 0.00 | 82 | 1032.7 |
| 20260508231219 | 68 | 321 | 0.0 | 0.0 | 0.00 | 0.00 | 0.00 | 82 | 1032.8 |
| 20260508230220 | 68 | 322 | 0.0 | 0.0 | 0.00 | 0.00 | 0.00 | 84 | 1032.7 |
| 20260508225219 | 68 | 329 | 0.0 | 0.0 | 0.00 | 0.00 | 0.00 | 83 | 1032.6 |
| 20260508224218 | 68 | 318 | 0.0 | 0.0 | 0.00 | 0.00 | 0.00 | 83 | 1033.0 |
| 20260508223221 | 68 | 323 | 0.0 | 0.0 | 0.00 | 0.00 | 0.00 | 83 | 1032.9 |
| 20260508222220 | 68 | 319 | 0.0 | 0.0 | 0.00 | 0.00 | 0.00 | 83 | 1033.0 |